星链-34744 (STARLINK-34744)

导读

STARLINK-34744是美国SpaceX公司星链(Starlink)星座的一颗低轨通信卫星,于2025年7月26日发射入轨。星链项目旨在构建全球覆盖的低轨卫星互联网,为偏远地区等网络覆盖薄弱区域提供高速宽带服务。该卫星采用平板设计,搭载氪工质霍尔推进器,具备自主避撞能力,寿命末期会主动离轨再入大气层烧毁,属于星链星座组网的量产卫星之一。

Basic Information
目录编号:
64952
目录名称:
STARLINK-34744
国际标识:
2025-158W
轨道中心:
EARTH
卫星名称:
星链-34744
卫星全名:
星链-34744 (STARLINK-34744)
卫星状态:
在轨 (已飞行405 天)
发射日期:
2025-07-26 UTC
国别 :
美国 (US)
星等 :
--
Orbit Information
数据来源 国际轨道数据
星历时间: 2026-09-04T14:00:02+0800
9小时前
查看轨道信息
半长轴: 6895.358km
偏心率: 0.0000743
轨道倾角: 97.283°
近地点辐角 67.635°
升交点赤经 105.845°
平近点角 206.896°
近地点: 516.708km
远地点: 517.734km
周期: 94.972分钟
每日圈数: 15.162388
Detailed Information
固有亮度:
5
最大亮度:
2.5
卫星平台:
Starlink V1.0
覆盖范围:
全球
运营商:
太空探索技术公司
运营商所在国:
美国
制造商(研发单位):
太空探索技术公司
制造商所在国:
美国
使用方式:
暂无
Satellite Introduction
Starlink 计划是 SpaceX 推出的全球卫星互联网项目,通过发射低轨道卫星,为全球尤其是偏远地区提供高速、低延迟的互联网服务。自 2019 年起,Starlink 已部署数千颗卫星,旨在缩小全球数字鸿沟,推动互联网普及。该项目还为军事、航空等行业提供通信支持,带来广泛经济效益。
2D Orbit Map
3D Orbit Map
Orbit Altitude Analysis Chart
Orbit Inclination Analysis Chart
Orbit Comprehensive Analysis Chart
View Comprehensive Chart
Conjunction Data List
Event ID Objects TCA Miss Dist (km) Collision Risk Probability Collision Risk Index (CRI) Action
CDM_260906-070905-778106-495221
2026-09-06T
07:09:23+0000
0.631 km
远距离
1.102556E-4 高风险 0.76
CDM_260906-194005-418406-495221
2026-09-06T
19:40:41+0000
0.993 km
远距离
2.725033E-5 中风险 0.64
CDM_260906-092706-415206-495221
2026-09-06T
09:27:30+0000
2.084 km
极远距离
2.614735E-6 低风险 0.43
CDM_260906-171502-182006-495221
2026-09-06T
17:15:54+0000
2.592 km
极远距离
1.715366E-6 低风险 0.4
CDM_260905-202505-548406-495221
2026-09-05T
20:25:26+0000
2.317 km
极远距离
1.575156E-6 低风险 0.39
CDM_260906-231106-495206-522521
2026-09-06T
23:11:55+0000
2.493 km
极远距离
1.445505E-6 低风险 0.38
CDM_260906-110106-415206-495221
2026-09-06T
11:01:29+0000
2.928 km
极远距离
1.39606E-6 低风险 0.38
CDM_260906-080705-962206-495221
2026-09-06T
08:07:11+0000
2.815 km
极远距离
9.568715E-7 极低风险 0.35